GW2412 Weather Reports


time (UTC)temp
F
wind
direction
speed
knots
gust
knots
rain 1hr
in
rain 24hr
in
rain mn
in
humidity
%
barometer
mb
20260906231020 62 309 6.1 8.7 0.00 0.28 0.18 1 1017.0
20260906230515 62 345 6.1 9.6 0.00 0.28 0.18 1 1017.0
20260906230042 62 317 6.1 10.4 0.00 0.28 0.18 1 1016.8
20260906225517 61 355 7.0 12.2 0.00 0.28 0.18 1 1016.9
20260906225020 60 323 7.0 12.2 0.00 0.28 0.18 1 1017.0
20260906224549 60 346 7.8 11.3 0.00 0.28 0.18 1 1017.2
20260906224019 60 344 8.7 11.3 0.00 0.28 0.18 1 1017.1
20260906223517 60 333 8.7 12.2 0.00 0.28 0.18 1 1017.2
20260906223042 60 325 7.8 10.4 0.00 0.28 0.18 1 1017.0
20260906222515 60 299 6.1 10.4 0.00 0.28 0.18 1 1017.2
20260906222016 60 315 7.8 10.4 0.00 0.28 0.18 1 1017.2
20260906221549 60 298 7.0 10.4 0.00 0.28 0.18 1 1017.2
20260906221017 60 309 7.0 10.4 0.00 0.28 0.18 1 1017.0
20260906220519 60 300 7.0 11.3 0.00 0.28 0.18 1 1017.2
20260906220044 60 292 6.1 9.6 0.00 0.28 0.18 1 1017.4
20260906215516 60 296 7.0 11.3 0.00 0.28 0.18 1 1017.4
20260906215016 61 291 6.1 11.3 0.00 0.28 0.18 1 1017.2
20260906214544 61 305 7.0 10.4 0.00 0.28 0.18 1 1017.3
20260906214019 61 275 5.2 8.7 0.00 0.28 0.18 1 1017.2
20260906213516 61 283 3.5 7.8 0.00 0.28 0.18 1 1017.4
20260906213050 61 244 4.3 8.7 0.00 0.28 0.18 1 1017.3
20260906212516 61 271 4.3 9.6 0.00 0.28 0.18 1 1017.3
20260906212017 61 271 7.0 9.6 0.00 0.28 0.18 1 1017.1
20260906211549 61 246 7.0 9.6 0.00 0.28 0.18 1 1017.2
20260906211016 61 299 7.0 9.6 0.00 0.28 0.18 1 1017.2
20260906210517 61 269 5.2 8.7 0.00 0.28 0.18 1 1017.1
20260906210053 61 333 2.6 7.0 0.00 0.28 0.18 1 1017.2
20260906205518 61 333 0.9 7.8 0.00 0.28 0.18 1 1017.0
20260906205016 61 301 3.5 7.0 0.00 0.28 0.18 1 1017.1
20260906204549 60 286 2.6 9.6 0.00 0.28 0.18 1 1017.1
20260906204017 60 312 7.0 9.6 0.00 0.28 0.18 1 1016.9
20260906203518 59 337 6.1 10.4 0.00 0.28 0.18 1 1017.1
20260906203040 59 342 6.1 10.4 0.00 0.28 0.18 1 1017.1
20260906202516 59 329 7.8 10.4 0.00 0.28 0.18 1 1017.2
20260906202019 59 310 5.2 9.6 0.00 0.28 0.18 1 1017.3
20260906201549 59 338 7.0 13.0 0.00 0.28 0.18 1 1017.4
20260906201022 59 311 7.0 13.0 0.00 0.28 0.18 1 1017.3
20260906200519 59 320 8.7 13.0 0.00 0.28 0.18 1 1017.1
20260906200040 59 321 8.7 13.0 0.00 0.28 0.18 1 1017.2
20260906195516 60 315 9.6 13.0 0.00 0.28 0.18 1 1017.1
20260906195021 61 322 7.0 10.4 0.00 0.28 0.18 1 1017.2
20260906194553 61 297 7.0 8.7 0.00 0.28 0.18 1 1017.3
20260906194018 62 290 3.5 10.4 0.00 0.28 0.18 1 1017.3
20260906193519 61 318 7.0 10.4 0.00 0.28 0.18 1 1017.1
20260906193049 62 320 7.0 9.6 0.00 0.28 0.18 1 1017.1
20260906192516 62 317 4.3 8.7 0.00 0.28 0.18 1 1017.0
20260906192019 64 173 0.9 6.1 0.00 0.28 0.18 1 1017.4
20260906191548 64 117 2.6 7.0 0.00 0.28 0.18 1 1017.2
20260906191020 64 98 0.9 7.0 0.00 0.28 0.18 1 1017.3
20260906190518 64 51 2.6 7.8 0.00 0.28 0.18 1 1017.3
20260906190049 64 106 0.9 7.8 0.00 0.28 0.18 1 1017.3
20260906185515 64 71 4.3 8.7 0.00 0.28 0.18 1 1017.2
20260906185017 64 79 6.1 11.3 0.00 0.28 0.18 1 1017.0
20260906184540 64 59 7.0 11.3 0.00 0.28 0.18 1 1016.8
20260906184019 63 77 6.1 10.4 0.00 0.28 0.18 1 1016.8
20260906183519 63 46 6.1 10.4 0.00 0.28 0.18 1 1017.0
20260906183059 62 48 3.5 7.8 0.00 0.28 0.18 1 1017.1
20260906182518 61 15 5.2 7.8 0.00 0.28 0.18 1 1017.1
20260906182017 59 350 3.5 9.6 0.00 0.28 0.18 1 1017.4
20260906181545 58 338 4.3 9.6 0.00 0.28 0.18 1 1017.4
20260906181017 58 327 5.2 8.7 0.01 0.28 0.18 1 1017.7
20260906180516 58 306 4.3 8.7 0.01 0.28 0.18 1 1017.8
20260906180110 58 339 4.3 8.7 0.01 0.28 0.18 1 1018.0
20260906175522 58 13 4.3 7.8 0.01 0.28 0.18 1 1018.1
20260906175019 57 348 3.5 7.0 0.01 0.28 0.18 1 1017.9
20260906174555 57 49 1.7 8.7 0.01 0.28 0.18 1 1018.3
20260906174019 56 20 5.2 12.2 0.01 0.28 0.18 1 1018.1
20260906173517 55 19 7.8 22.6 0.01 0.28 0.18 1 1018.1
20260906173054 54 44 13.0 23.5 0.01 0.28 0.18 1 1017.8
20260906172517 53 28 14.8 23.5 0.01 0.28 0.18 1 1017.8
20260906172018 52 351 14.8 20.9 0.01 0.28 0.18 1 1018.7
20260906171609 53 328 14.8 20.0 0.01 0.28 0.18 1 1018.8
20260906171018 53 336 14.8 20.9 0.01 0.26 0.17 1 1019.1
20260906170518 53 275 13.9 20.9 0.01 0.26 0.17 1 1019.3
20260906170059 54 259 10.4 15.6 0.01 0.26 0.17 1 1019.1
20260906165520 54 324 8.7 12.2 0.03 0.26 0.17 1 1019.3
20260906165017 55 319 6.1 9.6 0.03 0.26 0.17 1 1019.1
20260906164555 55 302 4.3 7.0 0.03 0.26 0.17 1 1018.9
20260906164019 55 343 2.6 4.3 0.03 0.26 0.17 1 1019.1
20260906163518 55 343 0.9 4.3 0.03 0.26 0.17 1 1019.2
20260906163055 55 343 0.9 4.3 0.03 0.26 0.17 1 1019.2
20260906162517 55 343 1.7 7.8 0.03 0.26 0.17 1 1018.9
20260906162018 54 343 4.3 10.4 0.03 0.26 0.17 1 1018.7
20260906161611 54 317 7.0 11.3 0.03 0.26 0.17 1 1018.7
20260906161016 54 346 7.8 13.0 0.02 0.26 0.16 1 1018.8
20260906160520 54 325 9.6 13.0 0.02 0.26 0.16 1 1019.0
20260906160050 53 5 8.7 17.4 0.02 0.26 0.16 1 1019.1
20260906155519 53 321 13.0 17.4 0.00 0.24 0.14 1 1019.1
20260906155019 53 355 12.2 17.4 0.00 0.24 0.14 1 1018.9
20260906154549 53 339 13.0 19.1 0.01 0.24 0.14 1 1018.9
20260906154019 53 346 12.2 20.9 0.06 0.24 0.14 1 1019.2
20260906153517 53 355 15.6 20.9 0.06 0.24 0.14 1 1019.1
20260906153108 53 322 12.2 18.2 0.09 0.24 0.14 1 1019.1
20260906152518 53 317 10.4 16.5 0.12 0.24 0.14 1 1019.6
20260906152016 53 318 11.3 15.6 0.12 0.24 0.14 1 1019.5
20260906151550 52 338 11.3 14.8 0.12 0.24 0.14 1 1019.5
20260906151017 52 333 11.3 14.8 0.12 0.24 0.14 1 1019.7
20260906150519 52 5 10.4 14.8 0.12 0.24 0.14 1 1019.8
20260906150045 52 360 10.4 16.5 0.12 0.24 0.14 1 1019.9
20260906145515 52 333 9.6 16.5 0.12 0.25 0.14 1 1020.0
20260906145018 51 336 12.2 18.2 0.12 0.25 0.14 1 1019.9
20260906144549 51 293 11.3 22.6 0.09 0.22 0.11 1 1020.5
20260906144016 51 279 15.6 25.2 0.06 0.19 0.08 1 1020.5
20260906143519 51 264 15.6 25.2 0.04 0.18 0.07 1 1019.6
20260906143049 52 271 18.2 25.2 0.02 0.14 0.04 1 1020.0
20260906142519 53 253 13.9 20.0 0.00 0.13 0.02 1 1019.9
20260906142023 55 240 9.6 17.4 0.00 0.13 0.02 1 1020.3
20260906141600 58 238 9.6 17.4 0.00 0.13 0.02 1 1020.0
20260906141017 58 53 9.6 13.9 0.00 0.13 0.02 1 1019.2
20260906140518 58 74 9.6 15.6 0.00 0.13 0.02 1 1018.8
20260906140053 59 64 10.4 15.6 0.00 0.13 0.02 1 1019.2
20260906135519 59 63 9.6 16.5 0.00 0.19 0.02 1 1018.9
20260906135016 59 59 11.3 16.5 0.00 0.19 0.02 1 1018.9
20260906134550 58 64 11.3 16.5 0.00 0.19 0.02 1 1018.9
20260906134016 58 34 9.6 15.6 0.00 0.19 0.02 1 1018.9
20260906133517 58 65 11.3 16.5 0.00 0.19 0.02 1 1019.1
20260906133057 58 65 11.3 15.6 0.00 0.19 0.02 1 1018.9
20260906132518 58 40 10.4 14.8 0.00 0.19 0.02 1 1018.9
20260906132017 58 57 10.4 14.8 0.00 0.19 0.02 1 1019.2
20260906131600 58 38 6.1 9.6 0.00 0.19 0.02 1 1019.2
20260906131020 58 32 0.9 3.5 0.00 0.19 0.02 1 1019.1
20260906130519 58 5 0.9 7.0 0.00 0.19 0.02 1 1019.3
20260906130052 59 216 0.0 8.7 0.00 0.19 0.02 1 1019.3
20260906125519 59 13 3.5 13.0 0.00 0.19 0.02 1 1019.3
20260906125017 59 11 7.8 13.9 0.00 0.19 0.02 1 1019.3
20260906124550 58 35 6.1 10.4 0.00 0.19 0.02 1 1019.3
20260906124021 58 27 7.0 11.3 0.00 0.19 0.02 1 1019.2
20260906123518 57 32 5.2 9.6 0.00 0.19 0.02 1 1019.2
20260906123052 57 13 5.2 9.6 0.00 0.19 0.02 1 1019.4
20260906122519 57 305 1.7 7.0 0.00 0.19 0.02 1 1019.5
20260906122019 57 18 2.6 10.4 0.00 0.19 0.02 1 1019.7
20260906121542 58 294 7.0 16.5 0.00 0.19 0.02 1 1019.8
20260906121024 58 11 9.6 20.9 0.00 0.19 0.02 1 1019.7
20260906120518 58 54 15.6 20.9 0.00 0.19 0.02 1 1019.2
20260906120056 58 44 11.3 21.7 0.00 0.19 0.02 1 1019.3
20260906115516 58 29 17.4 21.7 0.00 0.19 0.02 1 1019.0
20260906115017 57 82 10.4 14.8 0.00 0.19 0.02 1 1019.3
20260906114553 57 55 9.6 13.0 0.00 0.19 0.02 1 1019.5
20260906114020 56 54 8.7 13.0 0.00 0.19 0.02 1 1019.4
20260906113519 57 71 2.6 16.5 0.00 0.19 0.02 1 1019.5
20260906113050 57 41 9.6 19.1 0.00 0.19 0.02 1 1019.4
20260906112519 57 36 12.2 19.1 0.00 0.19 0.02 1 1018.8
20260906112017 57 35 10.4 15.6 0.00 0.19 0.02 1 1019.1
20260906111548 58 38 7.0 17.4 0.00 0.19 0.02 1 1018.9
20260906111018 58 55 7.8 14.8 0.00 0.19 0.02 1 1019.1
20260906110517 59 269 7.8 14.8 0.00 0.19 0.02 1 1018.7
20260906110049 60 44 2.6 11.3 0.00 0.19 0.02 1 1019.3
20260906105520 59 337 5.2 12.2 0.00 0.19 0.02 1 1019.2
20260906105022 60 346 6.1 13.9 0.00 0.19 0.02 1 1019.3
20260906104549 60 5 6.1 13.9 0.00 0.19 0.02 1 1019.3
20260906104019 58 97 5.2 19.1 0.00 0.19 0.02 1 1019.3
20260906103520 58 294 2.6 20.9 0.00 0.19 0.02 1 1019.5
20260906103052 58 263 10.4 20.9 0.00 0.19 0.02 1 1019.1
20260906102519 57 261 7.8 20.9 0.00 0.19 0.02 1 1019.3
20260906102016 57 232 7.0 14.8 0.00 0.19 0.02 1 1018.9
20260906101549 57 311 7.8 13.9 0.00 0.19 0.02 1 1019.0
20260906101020 57 305 8.7 13.9 0.00 0.19 0.02 1 1019.5
20260906100523 57 297 7.8 10.4 0.00 0.19 0.02 1 1019.6
20260906100045 56 360 6.1 10.4 0.00 0.19 0.02 1 1019.5
20260906095517 56 340 5.2 8.7 0.00 0.19 0.02 1 1019.4
20260906095019 56 5 3.5 7.8 0.00 0.19 0.02 1 1019.4
20260906094557 56 27 2.6 5.2 0.00 0.19 0.02 1 1019.5
20260906094020 56 352 1.7 7.8 0.00 0.19 0.02 1 1019.5
20260906093518 56 352 1.7 18.2 0.00 0.19 0.02 1 1019.6
20260906093053 55 30 13.0 22.6 0.00 0.19 0.02 1 1019.3
20260906092518 55 26 17.4 22.6 0.00 0.19 0.02 1 1019.5
20260906092021 55 355 14.8 21.7 0.00 0.19 0.02 1 1019.3
20260906091551 54 24 16.5 21.7 0.00 0.19 0.02 1 1019.7
20260906091021 52 317 13.9 22.6 0.00 0.19 0.02 1 1020.1
20260906090520 52 300 9.6 16.5 0.00 0.19 0.02 1 1020.8
20260906090053 51 244 10.4 20.0 0.00 0.19 0.02 1 1021.4
20260906085519 51 265 14.8 20.0 0.00 0.19 0.02 1 1021.4
20260906085019 51 271 14.8 20.9 0.00 0.19 0.02 1 1021.0
20260906084559 52 297 13.0 21.7 0.00 0.19 0.02 1 1020.0
20260906084025 53 315 9.6 21.7 0.00 0.19 0.02 1 1020.2
20260906083518 54 317 14.8 21.7 0.00 0.19 0.02 1 1020.0
20260906083049 54 338 13.0 22.6 0.00 0.19 0.02 1 1019.6
20260906082519 53 352 13.0 23.5 0.00 0.19 0.02 1 1019.7
20260906082019 52 349 16.5 25.2 0.00 0.19 0.02 1 1019.2
20260906081548 52 329 17.4 26.1 0.00 0.19 0.02 1 1019.7
20260906081021 53 336 19.1 26.1 0.00 0.19 0.02 1 1019.7
20260906080521 53 311 13.9 20.9 0.00 0.19 0.02 1 1019.6
20260906075517 54 328 11.3 15.6 0.00 0.19 0.02 1 1020.3
20260906075017 55 338 7.8 13.0 0.00 0.19 0.02 1 1020.3
20260906074556 55 338 10.4 15.6 0.00 0.19 0.02 1 1020.0
20260906074018 54 9 10.4 17.4 0.00 0.19 0.02 1 1019.9
20260906073517 54 5 11.3 17.4 0.00 0.19 0.02 1 1020.2
20260906073054 54 5 11.3 17.4 0.00 0.19 0.02 1 1020.3
20260906072518 54 5 12.2 19.1 0.00 0.19 0.02 1 1020.3
20260906072020 54 342 13.9 20.0 0.00 0.19 0.02 1 1020.5
20260906071552 54 326 13.9 20.9 0.00 0.19 0.02 1 1020.5
20260906071024 54 347 13.9 20.9 0.00 0.19 0.02 1 1020.8
20260906070521 54 338 10.4 18.2 0.01 0.19 0.02 1 1021.0
20260906070059 54 5 11.3 18.2 0.02 0.19 0.02 1 1021.0
20260906065520 54 350 13.9 20.0 0.02 0.19 0.02 1 1020.9
20260906065018 53 350 13.0 20.0 0.02 0.19 0.02 1 1021.0
20260906064552 53 355 13.9 22.6 0.02 0.19 0.02 1 1021.0
20260906064021 53 360 16.5 23.5 0.02 0.19 0.02 1 1020.9
20260906063520 53 336 16.5 23.5 0.02 0.19 0.02 1 1021.4
20260906063102 53 334 15.6 21.7 0.02 0.19 0.02 1 1021.4
20260906062523 54 319 13.0 18.2 0.02 0.19 0.02 1 1022.0
20260906062019 54 305 12.2 16.5 0.02 0.19 0.02 1 1022.0
20260906061550 54 328 12.2 17.4 0.02 0.19 0.02 1 1021.8
20260906061020 54 325 12.2 17.4 0.02 0.19 0.02 1 1021.7
20260906060518 54 349 9.6 14.8 0.01 0.17 0.00 1 1021.8
20260906060133 54 303 8.7 13.0 0.01 0.17 0.00 1 1021.9
20260906055517 54 309 5.2 10.4 0.02 0.17 0.17 1 1021.5
20260906055020 54 340 7.0 11.3 0.02 0.17 0.17 1 1021.2
20260906054606 54 323 8.7 12.2 0.02 0.17 0.17 1 1021.2
20260906054021 54 317 8.7 12.2 0.02 0.17 0.17 1 1021.4
20260906053520 54 330 8.7 13.9 0.02 0.17 0.17 1 1021.4
20260906053056 54 360 8.7 13.9 0.02 0.17 0.17 1 1021.4
20260906052519 54 348 8.7 18.2 0.02 0.17 0.17 1 1021.7
20260906052019 54 360 12.2 19.1 0.02 0.17 0.17 1 1021.5
20260906051601 53 309 12.2 20.9 0.02 0.17 0.17 1 1021.4
20260906051021 53 321 13.0 20.9 0.02 0.17 0.17 1 1021.1
20260906050525 54 334 16.5 21.7 0.01 0.16 0.16 1 1020.6
20260906045521 55 314 11.3 13.9 0.00 0.14 0.14 1 1022.6
20260906045017 55 329 4.3 8.7 0.01 0.14 0.14 1 1022.3
20260906044559 55 283 4.3 7.8 0.02 0.14 0.14 1 1021.4
20260906044023 55 325 3.5 7.0 0.04 0.14 0.14 1 1020.8
20260906043526 55 331 3.5 8.7 0.06 0.14 0.14 1 1020.6
20260906043037 55 335 6.1 13.0 0.08 0.14 0.14 1 1020.5
20260906042518 55 5 8.7 13.9 0.08 0.14 0.14 1 1020.4
20260906042016 55 313 9.6 13.0 0.08 0.14 0.14 1 1020.5
20260906041538 55 329 7.8 13.9 0.08 0.14 0.14 1 1020.8
20260906041018 55 334 7.8 13.9 0.08 0.14 0.14 1 1020.7
20260906040517 54 344 9.6 13.9 0.08 0.14 0.14 1 1020.8
20260906040039 54 332 8.7 18.2 0.08 0.14 0.14 1 1021.0
20260906035517 54 345 11.3 22.6 0.08 0.14 0.14 1 1021.0
20260906035017 54 347 16.5 22.6 0.07 0.14 0.14 1 1019.8
20260906034553 55 347 13.0 18.2 0.04 0.12 0.12 1 1021.3
20260906034019 55 318 11.3 14.8 0.03 0.09 0.09 1 1022.3
20260906033518 56 324 9.6 13.0 0.01 0.08 0.08 1 1022.1
20260906033046 57 303 6.1 14.8 0.00 0.07 0.07 1 1022.3
20260906032517 58 312 9.6 16.5 0.00 0.07 0.07 1 1021.7
20260906032016 59 306 9.6 20.9 0.00 0.07 0.07 1 1020.9
20260906031535 59 339 13.9 20.9 0.00 0.07 0.07 1 1020.4
20260906031017 59 331 12.2 19.1 0.00 0.07 0.07 1 1020.4
20260906030519 59 313 13.9 18.2 0.00 0.07 0.07 1 1020.2
20260906030041 59 304 12.2 17.4 0.00 0.07 0.07 1 1020.0
20260906025520 59 285 12.2 20.0 0.00 0.07 0.07 1 1019.7
20260906025018 59 311 9.6 16.5 0.00 0.07 0.07 1 1019.6
20260906024540 58 309 8.7 19.1 0.00 0.07 0.07 1 1019.6
20260906024019 58 315 9.6 18.2 0.00 0.07 0.07 1 1019.2
20260906023518 58 330 12.2 18.2 0.00 0.07 0.07 1 1019.3
20260906023039 58 342 12.2 18.2 0.00 0.07 0.07 1 1019.3
20260906022517 57 352 13.0 17.4 0.00 0.07 0.07 1 1019.3
20260906022017 58 319 13.0 17.4 0.00 0.07 0.07 1 1019.5
20260906021544 58 355 12.2 18.2 0.00 0.07 0.07 1 1019.5
20260906021017 58 345 12.2 18.2 0.00 0.07 0.07 1 1019.2
20260906020515 58 341 13.0 17.4 0.00 0.07 0.07 1 1019.0
20260906020039 59 340 12.2 16.5 0.00 0.07 0.07 1 1019.3
20260906015516 59 344 11.3 16.5 0.00 0.07 0.07 1 1019.2
20260906015018 59 323 11.3 16.5 0.00 0.07 0.07 1 1019.4
20260906014548 60 320 10.4 13.9 0.00 0.07 0.07 1 1019.6
20260906014018 60 325 8.7 12.2 0.00 0.07 0.07 1 1019.6
20260906013518 60 325 7.8 13.9 0.00 0.07 0.07 1 1019.5
20260906013038 61 296 8.7 13.0 0.00 0.07 0.07 1 1019.3
20260906012516 61 318 9.6 13.0 0.00 0.07 0.07 1 1019.5
20260906012015 61 348 7.0 12.2 0.00 0.07 0.07 1 1019.6
20260906011542 61 320 9.6 13.9 0.00 0.07 0.07 1 1019.4
20260906011016 61 346 8.7 13.9 0.00 0.07 0.07 1 1019.5
20260906010517 61 330 7.8 15.6 0.00 0.07 0.07 1 1019.5
20260906010043 61 323 11.3 17.4 0.00 0.07 0.07 1 1019.4
20260906005518 61 340 11.3 18.2 0.00 0.07 0.07 1 1019.5
20260906005016 61 350 11.3 20.0 0.00 0.07 0.07 1 1019.6
20260906004549 61 344 13.9 19.1 0.00 0.07 0.07 1 1019.6
20260906004017 62 336 10.4 18.2 0.00 0.07 0.07 1 1019.5
20260906003516 62 346 13.0 20.0 0.00 0.07 0.07 1 1019.4
20260906003042 62 329 13.0 20.0 0.00 0.07 0.07 1 1019.7
20260906002515 62 314 10.4 17.4 0.00 0.07 0.07 1 1019.8
20260906002017 62 333 13.9 17.4 0.00 0.07 0.07 1 1019.4
20260906001558 63 352 12.2 18.2 0.00 0.07 0.07 1 1019.6
20260906001016 63 341 13.9 18.2 0.00 0.07 0.07 1 1019.7
20260906000516 63 355 11.3 18.2 0.00 0.07 0.07 1 1019.9
20260906000046 63 355 12.2 17.4 0.00 0.07 0.07 1 1020.0
20260905235517 63 325 11.3 16.5 0.00 0.07 0.07 1 1020.1
20260905235019 63 333 12.2 16.5 0.00 0.07 0.07 1 1020.1
20260905234544 64 340 11.3 16.5 0.00 0.07 0.07 1 1020.2
20260905234016 64 336 10.4 16.5 0.00 0.07 0.07 1 1020.2
20260905233518 64 355 10.4 16.5 0.00 0.07 0.07 1 1020.0
20260905233040 64 333 13.0 16.5 0.00 0.07 0.07 1 1019.9
20260905232520 65 360 11.3 15.6 0.00 0.07 0.07 1 1020.0
20260905232016 65 5 10.4 15.6 0.00 0.07 0.07 1 1019.7
20260905231540 65 328 11.3 16.5 0.00 0.07 0.07 1 1019.9